Terug naar catalogus

STARLINK-33922

ActiefCommunicatieVLEO
NORAD 63698·PAYLOAD·🇺🇸 United States

Gelanceerd Apr 28, 2025 vanaf Vandenberg Space Force Base

Loading…

Volgende Passages (komende 24 uur)

TLE

VersSource: CelesTrak SupGP

Epoch: Sep 14, 2026, 21:32 UTC

1 63698C 25087B   26257.89770833  .00032142  00000+0  94990-3 0  2573
2 63698  53.1605  59.7132 0001193  69.9474 240.1439 15.34366686    16

Volg STARLINK-33922 in realtime met AllMySat

Download on the App Store